TimeMST,TemperatureF,Dew PointF,Humidity,Sea Level PressureIn,VisibilityMPH,Wind Direction,Wind SpeedMPH,Gust SpeedMPH,PrecipitationIn,Events,Conditions,WindDirDegrees,DateUTC
12:40 AM,30.0,28.9,96,30.07,9.0,WNW,10.4,-,N/A,,Overcast,300,2013-11-25 07:40:00
12:53 AM,30.0,28.9,96,30.08,8.0,Variable,4.6,24.2,N/A,,Overcast,0,2013-11-25 07:53:00
1:31 AM,30.0,28.9,96,30.07,6.0,WNW,11.5,-,0.00,,Overcast,290,2013-11-25 08:31:00
1:42 AM,30.0,30.0,100,30.06,7.0,WNW,11.5,19.6,0.00,,Overcast,300,2013-11-25 08:42:00
1:53 AM,30.0,30.0,100,30.09,5.0,WNW,10.4,-,0.00,Snow,Light Snow,300,2013-11-25 08:53:00
2:01 AM,30.9,30.0,96,30.07,4.0,WNW,12.7,-,0.00,Snow,Light Snow,300,2013-11-25 09:01:00
2:53 AM,30.9,30.0,96,30.06,9.0,WNW,11.5,-,0.00,,Overcast,290,2013-11-25 09:53:00
3:01 AM,30.9,30.0,96,30.05,10.0,WNW,9.2,-,N/A,,Overcast,300,2013-11-25 10:01:00
3:32 AM,30.9,28.9,92,30.05,10.0,NW,11.5,20.7,N/A,,Scattered Clouds,310,2013-11-25 10:32:00
3:53 AM,30.0,30.0,100,30.07,10.0,WNW,9.2,-,N/A,,Mostly Cloudy,300,2013-11-25 10:53:00
4:08 AM,30.0,28.9,96,30.05,10.0,WNW,8.1,-,N/A,,Scattered Clouds,300,2013-11-25 11:08:00
4:53 AM,30.9,28.9,92,30.06,10.0,WNW,10.4,-,N/A,,Clear,300,2013-11-25 11:53:00
5:53 AM,30.0,28.0,92,30.08,10.0,NNW,6.9,-,N/A,,Clear,330,2013-11-25 12:53:00
6:53 AM,30.0,26.1,85,30.11,10.0,WNW,6.9,-,N/A,,Clear,300,2013-11-25 13:53:00
7:53 AM,30.9,27.0,85,30.15,10.0,WNW,4.6,-,N/A,,Clear,300,2013-11-25 14:53:00
8:53 AM,34.0,28.0,79,30.15,10.0,NW,6.9,-,N/A,,Clear,310,2013-11-25 15:53:00
9:53 AM,35.1,28.0,76,30.17,10.0,ENE,3.5,-,N/A,,Clear,70,2013-11-25 16:53:00
10:53 AM,37.0,32.0,82,30.18,10.0,SSW,11.5,-,N/A,,Clear,210,2013-11-25 17:53:00
11:53 AM,37.9,32.0,79,30.16,10.0,SSW,15.0,-,N/A,,Clear,210,2013-11-25 18:53:00
12:53 PM,39.9,33.1,77,30.15,10.0,SSW,16.1,-,N/A,,Clear,210,2013-11-25 19:53:00
1:53 PM,42.1,34.0,73,30.14,10.0,SSW,16.1,-,N/A,,Clear,200,2013-11-25 20:53:00
2:53 PM,44.1,34.0,68,30.13,10.0,SSW,11.5,-,N/A,,Clear,200,2013-11-25 21:53:00
3:53 PM,44.1,33.1,65,30.15,10.0,SW,9.2,-,N/A,,Clear,220,2013-11-25 22:53:00
4:53 PM,39.0,33.1,79,30.19,10.0,South,4.6,-,N/A,,Clear,190,2013-11-25 23:53:00
5:53 PM,35.1,32.0,89,30.22,10.0,ENE,4.6,-,N/A,,Clear,60,2013-11-26 00:53:00
6:53 PM,32.0,30.0,92,30.26,10.0,East,3.5,-,N/A,,Clear,80,2013-11-26 01:53:00
7:53 PM,30.0,28.9,96,30.27,10.0,Calm,Calm,-,N/A,,Clear,0,2013-11-26 02:53:00
8:53 PM,28.9,28.0,96,30.29,10.0,Calm,Calm,-,N/A,,Clear,0,2013-11-26 03:53:00
9:53 PM,30.9,30.0,96,30.31,10.0,WSW,4.6,-,N/A,,Clear,250,2013-11-26 04:53:00
10:53 PM,30.0,28.9,96,30.32,10.0,Calm,Calm,-,N/A,,Clear,0,2013-11-26 05:53:00
11:53 PM,27.0,26.1,96,30.34,10.0,NE,4.6,-,N/A,,Clear,50,2013-11-26 06:53:00